Flag for Netherlands Weather past 2 weeks in Ede, Netherlands

Now
63 °F

Cloudy.


Feels Like: 63 °F
Forecast: 47 / 62 °F
Wind: 9 mph from West

Location: Deelen

Current Time: Sep 2, 2015 at 3:21:57 PM

Latest Report: Sep 2, 2015 at 2:55 PM


Visibility: N/A

Pressure: 29.98 "Hg

Humidity: 68%

Dew point: 52 °F

Location of EdeLocation

Historic Weather in Ede — Graph

°F

Ede temperature yesterday

Maximum temperature yesterday: 66 °F (at 12:55 AM)
Minimum temperature yesterday: 52 °F (at 11:25 PM)
Average temperature yesterday: 61 °F

Past Weeks' High & Low Weather Summary

 TemperatureHumidityPressure
High82 °F (Aug 31, 2:55 PM)100% (Aug 24, 1:55 AM)30.24 "Hg (Aug 24, 1:55 AM)
Low46 °F (Aug 29, 6:55 AM)37% (Aug 23, 3:25 PM)29.47 "Hg (Aug 24, 3:55 PM)
Average64 °F78%29.95 "Hg
* Reported Aug 18 1:25 PM — Sep 2 1:55 PM, Ede, Weather by CustomWeather, © 2015

Note: Actual official high and low records may vary slightly from our data, if they occured in-between our weather recording intervals... More about our weather records

Advertising

Ede weather history for previous 24 hours

 ConditionsComfort  
Time TempWeatherWind HumidityBarometerVisibility
1:55 PM
Wed, Sep 2
61 °FBroken clouds.7 mph72%30.01 "HgN/A
1:25 PM61 °FPassing clouds.8 mph77%30.01 "HgN/A
12:55 PM59 °FMore clouds than sun.9 mph77%30.01 "HgN/A
12:25 PM59 °FOvercast.8 mph77%30.01 "HgN/A
11:55 AM59 °FPartly sunny.8 mph82%30.01 "HgN/A
11:25 AM57 °FPartly sunny.7 mph88%30.01 "HgN/A
10:55 AM57 °FBroken clouds.9 mph88%30.01 "HgN/A
10:25 AM57 °FMore clouds than sun.9 mph88%30.01 "HgN/A
9:55 AM57 °FOvercast.7 mph88%30.01 "HgN/A
9:25 AM57 °FOvercast.7 mph82%30.01 "HgN/A
8:55 AM57 °FMore clouds than sun.8 mph82%30.01 "HgN/A
8:25 AM54 °FPassing clouds.8 mph94%30.01 "HgN/A
7:55 AM52 °FSunny.8 mph94%30.01 "HgN/A
7:25 AM48 °FPassing clouds.8 mph100%30.01 "HgN/A
6:55 AM48 °FPassing clouds.7 mph100%30.01 "HgN/A
6:25 AM48 °FPassing clouds.6 mph100%30.01 "HgN/A
5:55 AM48 °FPassing clouds.6 mph100%30.01 "HgN/A
5:25 AM48 °FPassing clouds.7 mph100%30.01 "HgN/A
4:55 AM48 °FPassing clouds.6 mph100%30.01 "HgN/A
4:25 AM48 °FPassing clouds.2 mph100%30.01 "HgN/A
3:55 AM48 °FPassing clouds.3 mph100%30.04 "HgN/A
3:25 AM50 °FPassing clouds.6 mph94%30.04 "HgN/A
2:55 AM50 °FPassing clouds.6 mph94%30.04 "HgN/A
2:25 AM50 °FPassing clouds.6 mph94%30.04 "HgN/A
1:55 AM50 °FPassing clouds.6 mph94%30.04 "HgN/A
1:25 AM50 °FPassing clouds.6 mph100%30.04 "HgN/A
12:55 AM50 °FPassing clouds.5 mph94%30.04 "HgN/A
11:25 PM
Tue, Sep 1
52 °FPassing clouds.5 mph94%30.04 "HgN/A
10:55 PM54 °FPassing clouds.6 mph88%30.04 "HgN/A
10:25 PM55 °FPassing clouds.6 mph88%30.01 "HgN/A
9:55 PM55 °FPassing clouds.5 mph88%30.01 "HgN/A
9:25 PM55 °FPassing clouds.5 mph88%30.01 "HgN/A
8:55 PM57 °FSunny.5 mph82%30.01 "HgN/A
8:25 PM59 °FBroken clouds.6 mph77%30.01 "HgN/A
7:55 PM59 °FScattered clouds.6 mph77%29.98 "HgN/A
7:25 PM61 °FSunny.9 mph72%29.98 "HgN/A
6:55 PM63 °FScattered clouds.12 mph64%29.98 "HgN/A
6:25 PM64 °FScattered clouds.12 mph64%29.98 "HgN/A
5:55 PM64 °FScattered clouds.10 mph68%29.98 "HgN/A
5:25 PM64 °FBroken clouds.12 mph68%29.95 "HgN/A
4:55 PM63 °FBroken clouds.10 mph77%29.95 "HgN/A
4:25 PM66 °FScattered clouds.10 mph68%29.95 "HgN/A
3:55 PM64 °FPassing clouds.8 mph73%29.95 "HgN/A
3:25 PM63 °FOvercast.13 mph73%29.92 "HgN/A
Weather by CustomWeather, © 2015

See weather overviewHow to use our weather pages